Date String (YYYY-MM-DD hh:mm:ss) UTC,Instrument flags,Ambient pressure (hPa),Sample flow (lpm),Bypass flow (lpm),Sample temperature (°C),Ambient temperature (°C),ASC tube jacket temperature (°C),LED temperature (°C),Box temperature (°C),Sample RH (%),Span deviation,Mass concentration (μg/m³),Mass concentration (μg/m³),Mass concentration (μg/m³)
DateTimeUTC,F1_M11,P_M11,Q1_M11,Q2_M11,T1_M11,T2_M11,T3_M11,T4_M11,T5_M11,U1_M11,ZSPAN_M11,X0_M11,X2_M11,X1_M11
2023-03-07 15:00:00,,0826.2,5.00,0.00,22.6,21.0,00.0,31.4,24.2,15.3,0000.0,0004.94,0003.72,0003.61
2023-03-07 15:01:00,,0826.2,5.00,0.00,22.6,20.9,00.0,31.4,24.1,15.3,0000.0,0004.93,0003.72,0003.61
2023-03-07 15:02:00,,0826.2,4.99,0.00,22.5,20.8,00.0,31.4,24.1,15.3,0000.0,0004.94,0003.72,0003.61
2023-03-07 15:03:00,,0826.2,4.98,0.00,22.5,20.7,00.0,31.4,24.1,15.4,0000.0,0004.98,0003.73,0003.62
2023-03-07 15:04:00,,0826.2,5.01,0.00,22.5,20.7,00.0,31.3,24.1,15.4,0000.0,0004.95,0003.73,0003.62
2023-03-07 15:05:00,,0826.1,5.00,0.00,22.5,21.5,00.0,31.3,24.3,15.4,0000.0,0004.97,0003.73,0003.63
2023-03-07 15:06:00,,0826.2,4.97,0.00,22.6,22.5,00.0,31.3,24.5,15.3,0000.0,0004.97,0003.74,0003.64
2023-03-07 15:07:00,,0826.2,5.00,0.00,22.7,23.1,00.0,31.4,24.6,15.2,0000.0,0004.97,0003.75,0003.65
2023-03-07 15:08:00,,0826.2,5.00,0.00,22.8,22.7,00.0,31.4,24.6,15.2,0000.0,0005.73,0003.76,0003.66
2023-03-07 15:09:00,,0826.2,5.01,0.00,22.7,22.2,00.0,31.4,24.5,15.2,0000.0,0006.37,0003.76,0003.65
2023-03-07 15:10:00,,0826.2,4.99,0.00,22.7,21.9,00.0,31.4,24.4,15.3,0000.0,0006.33,0003.76,0003.65
2023-03-07 15:11:00,,0826.2,5.00,0.00,22.7,21.6,00.0,31.4,24.3,15.3,0000.0,0006.30,0003.75,0003.66
2023-03-07 15:12:00,,0826.2,4.99,0.00,22.7,21.4,00.0,31.4,24.3,15.3,0000.0,0006.35,0003.77,0003.68
2023-03-07 15:13:00,,0826.2,5.01,0.00,22.6,21.2,00.0,31.4,24.2,15.3,0000.0,0006.41,0003.77,0003.68
2023-03-07 15:14:00,,0826.2,5.02,0.00,22.6,21.0,00.0,31.4,24.1,15.4,0000.0,0006.46,0003.78,0003.68
2023-03-07 15:15:00,,0826.2,5.01,0.00,22.6,20.9,00.0,31.4,24.1,15.4,0000.0,0006.51,0003.80,0003.69
2023-03-07 15:16:00,,0826.2,4.98,0.00,22.5,20.7,00.0,31.4,24.0,15.5,0000.0,0006.48,0003.80,0003.70
2023-03-07 15:17:00,,0826.2,5.01,0.00,22.5,20.6,00.0,31.3,24.0,15.5,0000.0,0006.60,0003.81,0003.70
2023-03-07 15:18:00,,0826.1,5.00,0.00,22.4,20.7,00.0,31.3,24.0,15.6,0000.0,0006.71,0003.82,0003.69
2023-03-07 15:19:00,,0826.1,5.00,0.00,22.5,21.6,00.0,31.3,24.2,15.5,0000.0,0006.51,0003.84,0003.69
2023-03-07 15:20:00,,0826.2,4.99,0.00,22.6,22.7,00.0,31.3,24.5,15.4,0000.0,0005.48,0003.84,0003.70
2023-03-07 15:21:00,,0826.2,4.97,0.00,22.7,23.1,00.0,31.3,24.6,15.3,0000.0,0005.50,0003.85,0003.71
2023-03-07 15:22:00,,0826.2,5.01,0.00,22.7,22.6,00.0,31.4,24.6,15.4,0000.0,0005.51,0003.85,0003.71
2023-03-07 15:23:00,,0826.1,5.02,0.00,22.7,22.2,00.0,31.4,24.5,15.4,0000.0,0005.50,0003.86,0003.71
2023-03-07 15:24:00,,0826.2,5.00,0.00,22.7,21.8,00.0,31.4,24.4,15.4,0000.0,0005.55,0003.91,0003.76
2023-03-07 15:25:00,,0826.1,5.01,0.00,22.7,21.5,00.0,31.4,24.3,15.4,0000.0,0005.64,0003.94,0003.80
2023-03-07 15:26:00,,0826.2,5.01,0.00,22.6,21.3,00.0,31.4,24.2,15.4,0000.0,0005.76,0003.98,0003.85
2023-03-07 15:27:00,,0826.1,5.01,0.00,22.6,21.0,00.0,31.4,24.1,15.5,0000.0,0005.93,0004.04,0003.89
2023-03-07 15:28:00,,0826.1,5.01,0.00,22.6,20.8,00.0,31.4,24.1,15.5,0000.0,0005.93,0004.10,0003.94
2023-03-07 15:29:00,,0826.1,4.99,0.00,22.5,20.7,00.0,31.4,24.0,15.5,0000.0,0005.91,0004.11,0003.97
2023-03-07 15:30:00,,0826.2,5.04,0.00,22.5,20.5,00.0,31.3,23.9,15.5,0000.0,0005.86,0004.12,0004.00
2023-03-07 15:31:00,,0826.1,5.01,0.00,22.4,20.7,00.0,31.3,24.0,15.6,0000.0,0005.98,0004.15,0004.03
2023-03-07 15:32:00,,0826.1,5.02,0.00,22.5,21.8,00.0,31.3,24.2,15.6,0000.0,0006.09,0004.18,0004.06
2023-03-07 15:33:00,,0826.2,4.99,0.00,22.6,22.8,00.0,31.3,24.5,15.5,0000.0,0006.18,0004.22,0004.09
2023-03-07 15:34:00,,0826.2,5.02,0.00,22.7,23.0,00.0,31.3,24.6,15.5,0000.0,0006.26,0004.25,0004.12
2023-03-07 15:35:00,,0826.2,5.00,0.00,22.7,22.5,00.0,31.4,24.5,15.4,0000.0,0006.24,0004.25,0004.13
2023-03-07 15:36:00,,0826.2,4.99,0.00,22.7,22.0,00.0,31.4,24.3,15.4,0000.0,0006.23,0004.26,0004.14
2023-03-07 15:37:00,,0826.2,5.01,0.00,22.6,21.6,00.0,31.4,24.3,15.5,0000.0,0006.22,0004.27,0004.13
2023-03-07 15:38:00,,0826.1,5.01,0.00,22.6,21.3,00.0,31.4,24.1,15.5,0000.0,0006.11,0004.24,0004.12
2023-03-07 15:39:00,,0826.1,5.00,0.00,22.6,21.1,00.0,31.4,24.1,15.6,0000.0,0006.06,0004.22,0004.11
2023-03-07 15:40:00,,0826.1,5.01,0.00,22.5,20.9,00.0,31.3,24.0,15.6,0000.0,0006.14,0004.22,0004.11
2023-03-07 15:41:00,,0826.1,5.00,0.00,22.5,20.8,00.0,31.3,24.0,15.6,0000.0,0006.15,0004.22,0004.11
2023-03-07 15:42:00,,0826.1,5.00,0.00,22.5,20.7,00.0,31.3,24.0,15.7,0000.0,0006.04,0004.21,0004.11
2023-03-07 15:43:00,,0826.2,4.99,0.00,22.4,20.7,00.0,31.3,23.9,15.7,0000.0,0006.01,0004.21,0004.11
2023-03-07 15:44:00,,0826.2,5.01,0.00,22.5,21.6,00.0,31.3,24.2,15.7,0000.0,0005.96,0004.20,0004.11
2023-03-07 15:45:00,,0826.2,5.01,0.00,22.6,22.7,00.0,31.3,24.4,15.6,0000.0,0005.93,0004.20,0004.09
2023-03-07 15:46:00,,0826.2,4.97,0.00,22.7,23.2,00.0,31.3,24.6,15.6,0000.0,0005.90,0004.18,0004.08
2023-03-07 15:47:00,,0826.2,4.99,0.00,22.7,22.7,00.0,31.3,24.5,15.5,0000.0,0005.86,0004.16,0004.06
2023-03-07 15:48:00,,0826.2,5.02,0.00,22.7,22.3,00.0,31.4,24.4,15.5,0000.0,0005.76,0004.14,0004.05
2023-03-07 15:49:00,,0826.2,5.02,0.00,22.7,21.8,00.0,31.4,24.3,15.6,0000.0,0005.78,0004.15,0004.06
2023-03-07 15:50:00,,0826.2,5.00,0.00,22.6,21.5,00.0,31.4,24.2,15.6,0000.0,0005.84,0004.18,0004.08
2023-03-07 15:51:00,,0826.1,4.98,0.00,22.6,21.3,00.0,31.4,24.2,15.7,0000.0,0005.78,0004.19,0004.09
2023-03-07 15:52:00,,0826.1,4.99,0.00,22.6,21.0,00.0,31.4,24.1,15.7,0000.0,0005.77,0004.21,0004.11
2023-03-07 15:53:00,,0826.1,4.99,0.00,22.5,20.9,00.0,31.4,24.1,15.7,0000.0,0005.86,0004.23,0004.13
2023-03-07 15:54:00,,0826.1,5.02,0.00,22.5,20.7,00.0,31.3,24.0,15.7,0000.0,0005.96,0004.26,0004.15
2023-03-07 15:55:00,,0826.1,5.01,0.00,22.5,20.7,00.0,31.3,24.0,15.7,0000.0,0005.98,0004.28,0004.18
2023-03-07 15:56:00,,0826.1,5.02,0.00,22.5,21.3,00.0,31.3,24.2,15.6,0000.0,0006.10,0004.33,0004.21
2023-03-07 15:57:00,,0826.0,5.03,0.00,22.6,22.4,00.0,31.3,24.4,15.6,0000.0,0006.16,0004.35,0004.23
2023-03-07 15:58:00,,0826.1,5.02,0.00,22.7,23.2,00.0,31.3,24.6,15.5,0000.0,0006.28,0004.38,0004.25
2023-03-07 15:59:00,,0826.0,5.03,0.00,22.8,22.9,00.0,31.4,24.6,15.4,0000.0,0006.37,0004.42,0004.29
